Flag for Belarus Weather past 2 weeks in Barysaw, Belarus

Now
66 °F

Passing clouds.


Feels Like: 66 °F
Forecast: 46 / 69 °F
Wind: 10 mph from Northeast

Location: Minsk


UV Index: 3 (Moderate)

Visibility: N/A


Pressure: 30.21 "Hg

Humidity: 52%

Dew point: 48 °F

Location of BarysawLocation

Historic Weather in Barysaw

°F

Barysaw temperature yesterday

Maximum temperature yesterday: 59 °F (at 5:30 PM)
Minimum temperature yesterday: 34 °F (at 2:00 AM)
Average temperature yesterday: 48 °F

Past Weeks' High & Low Weather Summary

 TemperatureHumidityPressure
High64 °F (Apr 19, 12:00 PM)100% (Apr 8, 4:00 AM)30.33 "Hg (Apr 8, 4:00 AM)
Low18 °F (Apr 5, 5:30 AM)18% (Apr 6, 5:00 PM)29.56 "Hg (Apr 15, 3:00 AM)
Average43 °F73%30.00 "Hg
* Reported Apr 4 12:00 Noon — Apr 19 12:30 PM, Barysaw, Weather by CustomWeather, © 2014

Note: Actual official high and low records may vary slightly from our data, if they occured in-between our weather recording intervals... More about our weather records

Advertising

Historic Weather Conditions — Data for Previous 24 hours

 ConditionsComfort  
Time TempWeatherWind HumidityBarometerVisibility
12:30 PM
Apr 19
64 °FPassing clouds.8 mph56%30.18 "HgN/A
12:00 PM64 °FPassing clouds.8 mph56%30.21 "HgN/A
11:30 AM63 °FPassing clouds.8 mph59%30.21 "HgN/A
11:00 AM61 °FPassing clouds.8 mph63%30.21 "HgN/A
10:30 AM59 °FPassing clouds.8 mph68%30.21 "HgN/A
10:00 AM57 °FPassing clouds.8 mph72%30.21 "HgN/A
9:30 AM55 °FPassing clouds.6 mph72%30.21 "HgN/A
9:00 AM54 °FPassing clouds.6 mph77%30.21 "HgN/A
8:30 AM50 °FPassing clouds.3 mph88%30.21 "HgN/A
8:00 AM48 °FClear.3 mph94%30.18 "Hg5 mi
7:30 AM46 °FPassing clouds.3 mph93%30.18 "Hg4 mi
7:00 AM43 °FFog.3 mph93%30.18 "Hg2 mi
6:48 AM41 °FFog.3 mph100%30.18 "Hg2 mi
6:00 AM43 °FFog.1 mph100%30.18 "Hg1 mi
5:59 AM43 °FFog.3 mph100%30.18 "Hg1 mi
5:30 AM37 °FFog.3 mph100%30.15 "Hg0 mi
5:04 AM37 °FFog.3 mph100%30.15 "Hg0 mi
4:56 AM37 °FFog.3 mph100%30.15 "Hg0 mi
4:30 AM37 °FFog.3 mph100%30.15 "Hg0 mi
4:00 AM41 °FFog.No wind100%30.15 "Hg0 mi
3:30 AM46 °FFog.3 mph93%30.15 "Hg0 mi
3:00 AM46 °FFog.No wind93%30.15 "Hg0 mi
2:30 AM46 °FFog.3 mph93%30.15 "Hg0 mi
2:00 AM46 °FFog.No wind93%30.12 "Hg0 mi
1:30 AM46 °FFog.No wind93%30.12 "Hg0 mi
1:03 AM46 °FFog.No wind93%30.12 "Hg0 mi
12:30 AM46 °FFog.No wind93%30.12 "Hg2 mi
12:00 AM48 °FFog.No wind94%30.12 "Hg3 mi
11:30 PM
Apr 18
46 °FFog.No wind93%30.12 "Hg2 mi
11:00 PM46 °FFog.No wind93%30.09 "Hg0 mi
10:30 PM46 °FFog.No wind93%30.09 "Hg1 mi
10:00 PM48 °FFog.No wind94%30.09 "Hg3 mi
9:30 PM48 °FClear.No wind94%30.09 "Hg5 mi
9:00 PM50 °FSunny.No wind88%30.07 "Hg10 mi
8:30 PM52 °FSunny.3 mph82%30.07 "Hg10 mi
8:00 PM55 °FSunny.3 mph77%30.07 "Hg10 mi
7:30 PM57 °FSunny.8 mph72%30.04 "Hg10 mi
7:00 PM59 °FSunny.10 mph68%30.04 "Hg10 mi
6:30 PM59 °FScattered clouds.10 mph68%30.04 "HgN/A
6:00 PM59 °FScattered clouds.8 mph68%30.04 "HgN/A
5:30 PM59 °FScattered clouds.10 mph63%30.04 "HgN/A
5:00 PM57 °FPartly sunny.10 mph67%30.04 "HgN/A
4:30 PM57 °FPartly sunny.10 mph67%30.04 "HgN/A
4:00 PM57 °FPartly sunny.8 mph63%30.04 "HgN/A
3:30 PM57 °FBroken clouds.8 mph63%30.04 "HgN/A
3:00 PM57 °FBroken clouds.6 mph63%30.04 "HgN/A
2:30 PM57 °FBroken clouds.8 mph63%30.04 "HgN/A
2:00 PM57 °FBroken clouds.6 mph63%30.01 "HgN/A
1:30 PM55 °FPartly sunny.8 mph59%30.01 "HgN/A
1:00 PM55 °FPartly sunny.6 mph63%30.01 "HgN/A
Weather by CustomWeather, © 2014

See weather overview